Wind_Speed
19 19 19 18 16 14 13 11 10 9 9 10 11 11 9 8 8 7 7 6 7 8 8 9 9 8 8 8 8 8 8 8 9 9 11 13 13 13 12 12 12 12 11 11 12 13 14 14 15 16 16 17 17 19 21 22 22 20 17 15 15 13 10 7 6 7 8 8 8 8 7 8 11 13 14 17 20 23 25 26 25 24 24 25 26
19 18 19 18 16 15 13 11 10 9 8 9 11 10 9 8 8 7 7 6 6 7 7 8 9 8 6 6 7 7 7 8 10 10 11 13 13 12 12 12 12 12 11 11 13 13 14 14 15 15 15 16 17 18 20 21 22 21 19 16 14 14 11 7 6 6 7 8 9 10 10 9 11 14 16 16 18 22 25 25 22 22 23 24 26
18 18 18 18 16 14 13 11 10 9 8 8 9 10 9 9 8 7 7 6 6 6 5 6 8 7 5 4 5 5 6 8 9 10 11 13 14 13 13 13 12 12 11 12 13 13 14 15 15 15 15 16 17 18 19 21 21 22 20 17 14 14 13 9 7 7 7 7 8 9 11 10 11 14 17 17 18 22 24 24 22 23 23 23 24
19 18 18 18 16 15 13 11 10 9 8 8 8 9 9 9 8 7 6 5 5 5 3 3 5 5 4 2 3 4 5 7 8 8 10 13 14 13 14 15 13 11 11 12 13 14 14 15 15 15 15 16 17 18 19 20 21 21 21 19 16 15 15 13 10 9 9 8 7 7 9 9 10 12 16 19 20 21 20 17 18 22 24 24 24
19 19 19 18 16 15 13 11 10 9 8 8 9 9 8 8 7 6 5 4 4 3 1 2 3 3 3 2 2 3 5 7 8 7 8 11 12 13 15 16 14 11 11 12 13 14 14 15 15 15 15 16 17 18 19 20 21 21 22 21 18 16 16 15 13 12 11 9 6 5 7 9 11 12 16 19 22 20 16 14 15 18 22 24 25
20 20 19 17 16 14 13 11 10 9 9 8 8 8 8 7 6 6 5 4 3 3 1 1 2 2 2 1 2 3 5 8 8 7 7 8 10 12 14 15 14 12 11 11 12 14 15 14 15 15 15 15 17 18 19 20 21 21 22 22 20 18 18 17 16 14 13 11 7 4 6 8 10 12 15 19 22 20 16 16 17 18 21 23 24
20 19 18 16 15 13 12 11 10 9 9 8 7 6 6 6 6 6 5 3 3 2 1 1 2 1 1 2 3 3 5 7 9 8 8 8 8 11 13 13 13 12 11 11 11 13 14 14 14 15 15 15 16 17 19 20 21 21 22 23 22 20 19 19 18 16 15 13 9 6 6 7 8 9 12 17 19 17 17 18 19 20 22 22 23
19 18 17 16 14 13 12 12 11 10 9 8 7 6 5 5 6 7 6 5 4 3 2 1 2 3 3 4 3 4 6 7 9 10 9 8 8 10 12 12 12 11 11 10 10 11 12 13 13 14 15 15 15 16 18 19 20 21 21 23 23 22 20 19 20 18 16 14 12 9 8 8 6 5 8 11 13 14 17 19 20 22 22 22 23
18 17 16 15 14 13 12 13 13 12 10 9 7 5 4 3 4 6 6 6 5 4 3 2 3 4 4 4 4 5 7 8 9 10 10 10 9 11 11 11 10 10 9 9 10 10 10 12 13 13 15 15 15 16 17 18 20 20 21 22 23 23 22 21 21 20 17 16 15 12 10 9 6 4 4 6 8 12 16 18 21 23 23 23 23
16 16 16 15 14 13 12 13 14 12 11 9 8 6 4 3 3 4 3 3 2 2 1 2 3 4 4 4 5 6 7 7 7 9 10 11 10 10 10 10 9 8 7 8 10 11 10 10 12 13 13 15 15 15 16 17 19 20 20 21 23 24 23 22 22 21 19 18 17 15 12 10 7 3 1 4 6 10 14 17 20 23 23 24 23
15 15 15 15 15 13 12 12 13 12 11 9 8 7 6 5 3 3 2 2 1 1 0 1 3 4 4 4 6 7 6 7 7 8 10 9 9 9 8 9 10 8 7 7 10 11 10 10 11 13 13 13 15 15 15 16 18 19 20 21 22 23 23 23 23 22 20 19 19 17 14 11 8 5 3 7 8 6 9 12 16 20 21 21 22
15 15 15 16 16 14 12 12 12 11 11 10 9 8 7 6 4 4 3 2 2 1 1 1 2 3 3 3 5 5 6 7 8 9 9 8 8 8 7 9 10 9 8 7 9 10 10 10 11 12 12 13 13 14 14 16 17 18 19 20 21 22 23 24 24 22 21 21 20 19 17 13 10 7 6 9 13 11 9 10 12 16 18 19 20
15 14 15 16 16 14 13 12 11 11 10 10 10 9 8 7 6 5 4 2 2 2 2 2 2 2 2 3 4 5 6 7 7 8 9 8 9 8 7 9 9 8 8 8 9 10 10 10 11 12 12 12 12 13 14 15 16 17 18 19 20 21 22 23 24 23 22 21 21 21 19 15 12 10 9 12 17 18 16 15 15 16 18 19 18
14 14 16 16 15 13 13 12 11 11 10 10 11 10 9 9 7 6 5 4 4 3 3 4 4 3 3 4 5 6 6 7 7 7 7 7 8 8 9 10 10 9 9 10 11 11 10 10 10 11 12 12 12 12 13 13 15 15 16 18 19 20 21 22 24 23 22 22 22 21 20 18 15 13 11 14 18 20 19 18 17 17 18 18 16
14 14 14 14 13 13 12 12 11 11 10 10 10 10 9 8 8 7 6 5 5 5 5 6 5 4 4 4 6 6 5 6 6 5 5 5 7 8 8 9 10 11 10 10 12 12 11 10 10 10 10 11 12 12 12 13 13 14 15 17 17 19 20 21 23 23 22 22 22 22 21 20 18 16 14 15 18 20 19 17 17 17 17 16 15
13 13 12 12 11 11 11 11 11 11 10 10 10 9 8 8 7 6 6 6 6 6 7 6 5 5 5 5 6 5 5 5 5 4 5 5 6 9 9 9 10 11 10 10 12 12 12 10 10 10 10 10 10 11 12 12 12 13 13 15 16 17 19 20 21 22 22 21 22 22 22 21 19 18 17 16 17 19 18 17 16 15 15 14 14
13 12 11 10 10 10 10 10 10 10 10 10 9 8 8 8 7 6 6 7 7 7 8 7 7 7 6 6 6 5 5 5 4 5 6 5 6 8 9 10 9 10 10 11 12 12 11 10 9 10 10 10 9 10 11 11 11 11 12 14 15 15 18 19 19 21 22 21 21 21 21 21 20 18 17 17 16 16 17 16 15 14 13 13 14
13 11 10 9 9 9 9 8 9 9 9 8 8 7 8 8 7 7 7 8 8 8 8 8 8 7 6 6 5 6 6 5 4 5 7 7 7 8 9 10 9 10 11 12 12 11 11 11 10 10 10 9 9 9 10 10 10 10 11 13 14 14 16 18 18 19 20 21 20 20 20 20 20 18 17 16 16 15 15 15 15 14 13 13 13
13 12 11 10 10 8 8 7 7 7 7 6 6 6 7 8 7 8 8 9 10 10 9 9 9 8 7 6 6 6 6 5 5 6 6 7 7 8 9 9 9 10 11 12 12 11 11 11 10 10 9 9 8 9 10 10 9 8 9 12 13 13 14 16 17 18 18 20 20 20 19 19 19 18 17 15 15 14 14 13 13 13 12 12 11
13 12 11 11 10 8 7 7 6 6 6 6 6 6 6 7 7 7 8 8 9 10 10 10 9 9 8 7 6 6 6 6 6 6 6 6 7 8 8 9 8 9 10 11 12 11 11 11 9 8 9 9 9 8 8 9 9 7 8 11 12 12 13 15 16 17 17 18 19 19 19 18 18 17 16 15 14 13 13 12 12 11 11 11 11
13 12 12 11 10 9 7 7 6 6 6 7 7 6 6 6 6 6 7 7 8 8 9 10 10 9 8 7 6 5 6 6 6 8 8 7 7 7 7 8 9 9 9 10 11 11 10 9 7 7 8 9 9 7 7 8 8 6 7 10 11 11 12 14 14 15 16 17 18 19 18 18 17 17 16 14 13 12 11 11 11 11 10 10 10
13 12 11 10 9 8 7 7 7 7 7 7 7 7 7 7 7 6 6 7 8 8 9 9 9 8 7 6 6 5 5 6 7 8 8 8 8 7 6 7 9 9 10 11 10 9 8 8 7 7 7 8 8 7 6 6 6 5 6 8 10 10 11 12 13 14 15 16 17 17 18 18 17 16 15 14 13 11 10 9 9 9 10 10 10
12 11 10 9 8 8 7 7 7 8 7 7 7 7 7 7 7 7 7 7 7 8 8 8 8 8 7 6 6 6 6 7 8 8 9 8 8 8 7 7 8 9 10 11 9 8 8 8 8 7 6 7 8 6 5 5 5 4 5 7 9 9 9 11 12 13 14 15 16 16 16 17 16 16 15 14 12 11 10 8 7 7 8 8 9
11 10 9 9 8 8 8 8 8 8 8 8 7 7 7 7 7 7 7 8 7 8 8 8 8 8 7 6 6 6 7 8 8 9 9 9 8 8 8 8 8 9 11 10 8 7 8 9 8 7 6 7 8 6 4 4 4 4 5 6 7 8 8 9 10 11 12 13 14 15 15 15 15 15 14 13 12 11 10 8 7 6 5 6 6
10 9 9 9 9 8 9 9 9 8 8 8 7 7 7 6 7 7 7 8 8 9 9 8 8 8 7 6 6 7 8 8 9 9 9 9 9 8 8 8 8 10 10 9 8 8 9 9 8 7 6 7 7 5 4 4 3 3 4 6 7 7 7 8 9 9 10 11 12 13 14 14 14 13 13 13 12 11 10 8 7 6 5 4 4
10 10 10 10 10 9 10 9 9 8 8 8 7 7 7 6 7 7 6 7 8 9 9 8 8 8 7 7 7 7 8 8 9 9 9 9 9 8 8 7 8 9 8 8 8 8 8 9 8 6 7 7 7 6 5 4 3 3 3 4 5 6 7 6 7 7 8 9 10 11 12 12 13 13 12 12 11 10 9 8 7 6 4 3 3
12 12 12 11 10 10 10 9 8 9 8 8 7 7 7 6 6 6 6 6 7 7 8 8 8 8 8 7 7 8 8 8 8 8 8 8 8 7 7 7 7 8 8 8 8 8 7 7 6 6 7 7 7 6 5 4 5 4 3 3 3 4 5 6 6 6 6 7 7 9 9 10 11 11 11 11 10 10 9 8 7 6 5 3 2
13 13 12 11 11 10 9 9 8 9 9 8 8 8 7 7 6 6 6 6 6 6 7 8 8 8 8 8 8 8 8 8 8 8 8 7 6 6 6 6 6 6 8 9 9 8 7 6 6 6 7 7 7 6 5 5 6 5 4 4 3 3 4 5 5 5 5 5 5 6 7 8 8 9 10 10 10 9 8 8 7 6 5 4 3
14 13 12 12 11 10 9 9 8 8 9 9 9 9 8 7 7 7 7 7 7 7 7 8 8 8 8 8 8 8 8 8 8 8 7 6 5 5 6 6 6 5 5 7 8 8 7 7 7 7 7 7 6 7 6 5 6 6 6 5 4 4 4 5 5 4 4 4 5 5 5 5 6 7 8 8 8 8 8 7 7 6 5 4 3
14 13 12 11 11 10 10 10 9 9 8 8 9 9 9 9 8 8 8 8 8 8 9 9 9 8 8 8 7 8 8 8 9 8 7 6 6 6 6 6 5 4 4 5 6 6 6 7 8 8 8 7 7 7 7 6 6 7 7 6 6 6 5 6 6 5 4 4 4 5 5 5 5 6 6 6 7 7 7 7 6 6 5 4 3
15 14 13 12 11 11 11 11 10 10 10 9 9 9 9 9 9 9 9 9 9 9 9 9 9 9 9 8 8 9 9 9 9 9 8 8 7 7 7 7 6 5 4 4 5 6 6 6 7 7 8 8 8 8 8 7 7 8 8 8 8 8 7 8 8 7 6 5 5 5 5 5 6 6 6 6 6 5 5 5 5 5 5 5 5
15 14 13 12 12 12 12 11 11 11 11 11 10 10 10 10 9 10 10 10 9 10 10 10 10 10 9 9 9 11 11 10 11 10 9 9 9 9 9 8 7 7 6 6 5 6 6 7 7 7 8 9 9 8 9 9 8 9 10 9 10 10 9 10 10 10 8 6 6 6 5 5 6 6 7 6 6 6 6 5 5 4 4 4 5
16 15 14 14 14 13 13 13 12 12 12 11 11 11 10 10 10 10 10 11 10 11 11 11 11 11 10 10 10 12 12 12 12 11 10 10 10 10 9 9 9 8 8 8 7 7 7 8 8 8 9 9 9 9 9 9 9 10 11 10 11 11 11 11 12 12 10 8 7 8 7 6 6 6 7 6 6 6 6 6 6 6 5 5 4
16 16 16 15 15 15 15 14 14 13 12 12 12 11 11 10 10 10 10 10 10 11 11 11 12 12 12 11 12 13 12 12 12 12 12 11 11 10 10 9 9 10 10 9 9 9 9 9 9 9 9 10 10 10 11 10 10 10 12 12 12 12 12 11 11 13 12 11 10 10 9 8 7 7 7 7 7 7 7 7 7 7 7 7 7
17 17 16 16 16 15 15 15 14 14 13 13 13 12 11 11 11 11 11 10 11 12 13 13 13 13 12 12 13 13 12 12 11 12 13 13 12 12 12 11 11 11 12 11 11 11 11 11 11 11 10 10 11 11 12 12 11 11 11 12 13 13 13 13 13 14 14 13 12 12 12 11 9 9 9 9 8 8 9 9 8 8 9 9 9
18 17 17 17 17 17 16 16 16 15 15 14 14 13 13 13 13 13 13 13 13 14 15 15 15 15 14 13 13 14 14 13 12 13 14 14 14 14 14 14 14 14 14 14 13 13 13 13 13 13 13 12 11 12 13 13 12 12 12 13 14 14 14 14 14 15 15 14 14 14 14 13 12 11 11 11 11 10 10 10 10 10 10 10 10
19 18 18 19 19 18 18 17 17 17 15 14 15 15 16 15 15 15 15 15 16 17 18 18 17 17 16 15 15 17 17 15 15 15 15 15 16 16 15 16 17 17 16 15 15 15 15 16 16 15 15 14 13 13 14 14 13 13 14 14 15 15 15 15 16 16 17 16 16 16 15 15 14 13 14 14 13 13 12 12 12 12 11 11 11
20 20 21 20 19 18 17 17 17 16 16 16 16 17 16 16 16 16 16 17 18 20 21 21 19 18 18 17 17 18 18 18 17 17 17 17 18 18 17 18 19 18 17 17 18 18 17 17 18 17 17 16 15 15 16 14 13 14 14 15 15 16 16 17 17 18 18 18 17 17 17 17 16 17 17 16 15 14 14 13 13 13 13 13 13
22 22 22 21 19 17 17 17 17 17 17 17 16 15 15 16 16 16 16 17 19 21 22 22 20 19 19 18 18 18 18 18 18 18 17 18 18 18 19 19 19 18 17 18 19 19 19 18 18 18 18 18 18 18 17 16 15 15 16 17 17 17 17 17 18 18 19 19 19 19 19 19 19 20 19 18 16 16 16 15 15 15 14 14 14
24 23 22 21 19 18 18 17 16 17 18 18 16 15 15 16 17 17 17 18 19 20 20 20 19 19 19 18 18 18 18 19 19 18 18 18 18 18 18 18 18 17 17 18 18 18 18 18 18 18 18 18 18 18 17 17 17 18 19 19 18 19 19 19 18 18 19 19 20 21 21 21 21 21 21 20 19 18 18 18 17 17 17 16 16
24 24 23 22 21 19 18 17 17 17 18 18 16 16 16 16 17 18 19 19 19 18 17 17 17 18 18 19 19 19 20 20 21 20 20 19 18 18 18 17 17 17 18 18 18 18 18 18 18 18 18 17 16 16 17 18 19 19 20 20 19 19 20 20 19 19 19 20 20 21 22 23 23 23 23 22 21 20 20 20 20 20 19 19 19
25 24 24 23 22 20 18 18 18 18 18 18 17 17 16 17 17 17 18 19 19 18 17 16 16 17 18 19 20 21 21 21 22 22 21 21 19 18 18 17 17 18 18 18 18 19 19 19 18 19 19 17 17 18 19 19 20 21 21 21 20 19 20 20 20 20 20 20 20 21 22 23 24 24 24 23 22 22 21 21 22 22 22 22 22
25 24 24 23 22 21 20 19 20 19 19 19 18 18 17 17 17 17 18 18 19 18 17 16 16 17 19 20 21 22 22 21 22 22 21 21 20 19 18 18 19 19 19 19 19 19 19 19 18 20 20 19 19 20 21 21 22 22 22 21 21 20 21 21 20 20 20 21 21 21 21 23 25 25 25 24 24 23 23 23 24 24 23 24 24
25 25 24 23 22 22 22 21 21 20 20 19 18 17 17 17 18 19 20 20 19 19 18 17 17 18 20 22 23 22 20 19 20 19 19 20 20 19 19 19 20 21 21 20 19 20 20 19 19 19 20 20 20 22 23 23 23 23 23 23 23 23 23 24 23 22 22 23 24 23 21 22 24 26 26 25 25 25 25 25 25 25 25 25 26
26 25 24 23 22 23 22 21 21 20 20 19 18 18 18 18 19 21 22 23 22 21 21 20 20 21 22 22 22 20 19 19 19 17 17 18 18 19 20 20 21 21 21 20 20 20 20 19 19 19 20 21 21 21 23 23 23 23 23 24 24 25 25 25 25 25 25 26 26 26 24 23 24 26 26 25 26 27 27 27 27 26 26 26 26
24 23 22 23 23 23 23 23 23 22 21 21 21 21 21 21 22 22 23 24 25 25 24 24 25 25 23 21 20 19 19 20 19 17 16 17 17 19 19 19 20 20 20 20 21 21 20 19 18 19 20 21 21 21 22 23 23 23 23 23 24 25 26 26 26 26 26 27 28 28 28 26 26 27 26 26 27 29 29 29 29 29 28 28 28
23 22 22 22 22 23 24 24 24 24 24 24 24 25 25 25 25 25 25 25 26 26 28 28 28 27 25 23 22 21 20 20 20 19 18 18 19 20 19 19 20 21 21 21 22 22 21 20 19 20 21 22 21 21 21 22 23 24 24 24 25 26 27 27 27 26 27 28 29 30 30 29 28 29 28 27 29 30 30 31 31 31 30 30 30
24 23 22 22 23 24 25 25 26 27 27 28 28 28 28 28 28 29 29 28 28 28 29 30 29 29 28 27 26 24 23 21 21 21 21 22 23 22 21 21 23 23 23 22 22 23 23 22 22 22 23 23 23 22 22 23 24 25 25 26 26 27 28 28 27 26 27 29 30 31 32 30 29 31 31 30 31 31 32 32 33 33 33 33 33
24 24 24 25 26 27 27 27 28 29 30 30 30 30 31 31 31 31 31 32 31 31 31 31 30 29 30 30 29 26 24 23 23 24 24 24 25 25 24 23 24 25 24 24 24 24 24 24 24 24 24 25 25 24 24 24 26 26 26 26 27 28 30 29 28 27 27 29 30 32 33 31 30 32 33 32 32 33 32 32 33 35 36 36 35
25 25 27 28 28 27 28 29 30 31 32 32 32 32 32 32 32 33 34 34 34 34 34 33 31 29 29 30 28 26 25 24 25 26 26 26 26 26 25 24 24 25 25 25 24 23 23 24 24 24 24 25 26 26 25 26 27 29 29 29 30 31 32 32 31 29 29 30 30 31 34 33 32 33 34 34 34 34 33 33 34 36 37 37 37
25 26 28 29 28 28 30 31 31 32 33 33 33 33 33 33 33 34 35 35 36 36 35 33 31 28 27 27 26 25 25 25 25 26 27 27 27 27 27 26 25 25 25 25 24 24 24 24 25 24 24 25 27 28 27 28 29 31 32 32 33 34 36 36 35 34 32 31 31 32 34 34 32 33 34 35 36 35 34 34 35 37 37 38 38
Wind_Direction
179 176 173 172 167 159 154 149 141 133 134 136 136 140 149 153 155 153 143 139 131 119 105 92 78 65 54 48 43 37 31 25 20 17 23 25 21 19 18 20 21 17 12 7 9 10 9 8 10 15 9 5 9 9 9 8 8 12 11 7 6 7 1 347 336 324 314 306 291 278 259 230 234 237 228 223 223 222 221 220 220 221 220 220 221
178 176 175 175 170 164 158 150 139 135 139 142 141 142 152 160 164 161 155 155 138 119 107 97 86 71 52 41 38 31 23 18 18 21 23 21 19 21 18 15 15 14 14 10 9 9 6 6 9 12 8 5 7 9 10 9 7 11 13 9 7 10 9 359 344 333 322 311 299 286 272 247 236 238 236 227 223 225 224 221 219 220 219 219 219
176 176 178 178 175 170 163 154 147 145 147 148 150 152 162 170 171 166 165 164 143 120 110 100 92 88 78 55 42 27 16 14 18 20 20 18 14 18 20 15 11 11 15 14 9 8 3 2 6 10 9 4 3 7 10 10 7 9 13 12 10 15 15 11 1 355 348 327 306 285 269 252 237 235 239 234 228 229 227 221 215 214 216 219 217
175 177 180 180 179 174 168 161 154 151 151 153 161 167 172 175 174 174 178 171 142 122 112 89 80 92 105 86 49 20 10 10 17 17 14 16 11 12 16 14 13 13 15 16 11 6 3 360 0 6 8 4 1 4 7 9 8 8 12 13 14 19 19 16 13 10 6 348 319 285 260 243 230 228 236 241 239 236 233 226 220 215 213 218 218
176 179 182 182 181 179 174 168 159 158 162 164 168 172 177 179 178 183 185 169 139 131 126 63 58 79 114 104 36 19 7 1 11 15 9 14 13 10 10 9 10 14 16 17 13 5 3 359 356 1 7 6 1 1 4 6 7 7 10 13 15 21 22 20 19 18 13 1 334 287 255 239 232 229 233 241 245 243 238 231 229 224 215 216 218
179 182 182 182 184 183 180 174 169 173 178 178 170 168 176 181 181 189 188 170 150 148 154 346 14 49 99 37 360 13 8 357 2 11 7 9 11 7 6 3 2 7 12 16 14 7 3 358 354 356 4 7 2 358 1 3 4 5 9 13 16 20 22 23 25 22 16 9 354 317 274 257 245 238 234 238 244 244 238 230 226 226 218 216 217
184 183 181 182 184 185 186 184 181 188 191 185 173 167 173 179 181 186 186 179 180 184 197 309 351 350 298 318 334 3 7 357 353 0 6 3 1 1 2 359 355 358 4 9 13 9 4 358 354 356 359 5 3 358 359 360 1 3 6 11 15 19 21 23 27 26 20 14 6 350 313 291 271 249 234 234 239 238 235 230 220 219 217 214 212
185 182 182 183 184 188 193 195 193 197 198 189 177 169 167 177 186 185 184 188 204 227 237 277 327 301 294 312 324 352 0 355 348 350 358 359 355 355 358 356 349 353 359 0 3 4 1 356 356 357 356 0 2 358 358 358 359 1 4 9 13 18 20 22 28 28 23 18 14 6 342 325 312 278 241 233 233 224 223 219 209 210 210 205 205
185 184 184 183 185 193 199 202 201 201 201 192 180 168 164 184 196 193 193 194 204 229 248 268 285 292 310 329 337 354 358 351 346 343 345 348 349 348 350 350 343 346 356 356 352 354 353 351 354 357 355 356 358 358 357 357 358 359 2 7 12 17 18 21 28 29 25 21 21 16 359 352 352 317 259 229 218 209 207 203 196 198 199 197 198
185 185 185 183 189 197 201 203 204 204 204 196 183 177 179 196 210 211 214 216 217 218 238 279 289 305 330 342 341 350 350 344 345 341 336 340 346 344 341 341 337 339 350 355 350 348 349 346 349 353 353 353 354 357 357 357 357 357 0 5 11 16 18 20 26 29 28 25 25 24 13 10 14 8 190 174 182 194 195 192 189 188 190 191 190
183 186 187 188 194 199 200 201 203 207 207 196 185 188 192 194 204 226 249 280 318 31 44 319 322 329 337 333 332 338 337 337 345 341 334 338 346 342 335 337 339 340 342 345 343 344 348 347 345 347 349 350 350 353 355 357 357 356 358 3 11 17 18 21 24 27 31 30 30 29 24 22 29 41 104 138 135 152 174 179 184 184 182 183 185
184 188 191 196 199 198 199 202 203 208 207 198 192 193 200 204 207 222 245 285 336 359 304 306 335 336 327 320 330 335 328 326 334 336 332 333 333 327 327 335 342 346 341 334 334 339 343 343 342 341 343 346 348 349 353 356 357 357 358 1 11 17 19 22 23 25 32 34 34 33 32 33 41 55 95 126 120 113 124 142 160 172 173 175 182
185 190 197 200 199 197 203 207 206 207 206 204 202 197 203 216 219 228 241 257 262 262 266 286 302 301 301 313 330 330 321 321 325 329 329 324 320 315 313 322 334 343 339 329 328 334 337 336 336 337 339 342 345 348 350 354 356 357 358 360 9 17 21 23 23 23 30 37 39 38 37 41 51 68 98 118 118 113 111 119 131 148 161 170 178
185 192 201 200 197 198 204 209 208 210 209 209 211 206 209 218 219 232 241 242 247 251 262 282 285 277 292 313 328 328 324 323 318 321 324 316 317 317 310 314 324 329 327 323 324 330 334 331 330 334 338 340 343 346 349 352 356 358 358 359 7 16 22 25 25 23 28 36 42 42 42 45 54 70 95 112 114 113 113 120 128 139 154 166 175
186 192 198 195 195 200 205 210 209 212 214 215 217 215 219 223 219 229 240 247 251 249 259 272 275 273 292 321 335 332 326 322 310 309 315 309 319 324 314 314 325 329 326 322 322 326 330 329 324 327 336 341 342 344 347 351 355 358 359 359 5 15 22 26 27 26 27 33 42 46 45 47 54 64 82 101 107 107 110 118 130 140 150 160 169
188 189 189 188 195 203 208 213 211 212 216 220 224 223 230 236 233 234 241 253 256 251 258 268 273 280 296 321 331 326 320 320 312 310 312 311 324 329 325 323 329 335 330 323 321 321 326 329 323 324 333 339 340 342 346 349 352 357 359 359 4 14 22 27 29 29 29 31 39 46 48 49 53 61 71 87 100 105 108 114 125 136 145 153 162
188 186 185 188 199 205 210 216 214 214 218 224 230 231 235 243 247 250 250 255 258 254 258 266 273 283 299 313 313 309 313 312 301 313 318 313 319 327 329 330 329 327 321 318 319 318 320 326 325 324 330 336 339 341 342 345 348 353 359 360 4 13 21 27 31 32 33 33 37 44 50 51 53 59 67 75 88 100 108 114 119 126 135 145 151
185 185 187 191 199 203 205 211 212 215 220 226 234 237 240 244 249 254 254 254 256 257 261 267 274 283 301 309 301 303 318 321 308 321 327 320 320 327 330 331 326 319 316 316 319 320 319 321 323 325 329 335 342 340 334 338 345 349 358 2 4 13 22 28 31 34 37 37 37 42 48 52 53 57 65 72 80 89 101 110 117 123 130 136 142
184 184 189 194 199 201 200 201 205 214 221 227 235 244 247 249 250 252 253 252 254 260 266 271 277 286 296 299 295 303 318 330 330 332 332 326 328 333 332 331 326 320 319 317 316 319 320 318 317 323 332 337 345 343 329 331 341 346 356 3 4 12 23 30 32 35 39 41 41 41 46 52 55 56 61 69 78 85 93 103 112 120 126 131 137
188 189 192 197 201 202 201 198 201 211 217 221 228 235 242 248 249 249 249 252 254 261 268 271 274 279 282 285 294 307 316 327 333 332 333 331 329 332 331 330 327 324 321 318 317 317 319 315 308 319 338 343 347 347 333 328 336 347 357 360 3 13 25 32 34 35 39 44 46 45 45 50 55 58 60 64 72 82 91 100 108 117 126 134 142
193 196 198 202 205 205 204 204 209 213 214 218 220 221 227 234 237 239 243 251 256 260 265 267 269 272 273 278 287 300 309 317 322 320 322 327 330 333 333 326 323 322 319 320 323 321 322 320 309 315 334 342 347 346 336 327 331 349 2 358 2 13 26 34 35 37 40 43 47 49 48 49 53 58 62 64 68 75 85 96 106 115 123 133 141
198 201 204 206 208 210 209 210 215 216 213 216 217 215 219 224 229 234 240 250 256 257 258 259 265 271 273 277 283 290 300 307 308 309 312 317 323 331 335 326 319 317 315 319 325 326 327 331 327 325 328 333 339 339 333 327 330 348 5 3 4 10 26 37 36 37 40 42 45 49 50 50 51 54 59 65 68 71 77 87 100 111 120 128 135
202 204 207 209 212 213 211 211 215 216 215 216 218 217 217 222 230 236 237 241 248 251 251 254 261 267 268 272 280 288 295 299 299 302 307 310 316 322 327 324 315 309 310 314 320 322 325 331 334 335 332 327 329 330 325 323 329 346 1 12 12 10 24 39 40 37 38 41 44 46 49 50 52 53 55 59 64 70 74 80 90 102 116 126 134
203 203 206 210 214 215 211 208 210 212 215 218 221 222 221 226 233 236 236 238 241 245 249 253 258 261 263 268 277 285 289 292 294 299 305 309 314 318 319 319 312 306 309 312 313 315 322 330 335 336 334 326 325 325 315 312 322 342 358 12 15 13 21 38 45 42 40 40 41 43 45 48 51 53 54 55 57 62 67 74 83 93 108 123 136
202 202 208 212 215 215 211 207 205 208 213 218 221 221 223 231 236 238 241 245 248 249 252 253 255 258 261 264 269 273 277 283 289 294 299 303 309 315 316 314 308 305 307 310 313 314 319 329 335 336 335 331 327 318 301 299 309 329 355 6 9 11 17 30 43 47 45 43 41 42 42 43 46 49 54 56 56 57 58 61 68 79 92 108 130
203 204 210 212 214 215 212 210 209 212 216 217 218 219 222 231 238 241 246 251 253 250 250 250 251 256 260 260 259 262 269 276 282 287 294 301 308 316 315 309 308 305 302 308 315 314 317 329 332 329 330 330 324 311 301 304 303 300 331 355 359 1 4 15 30 40 45 45 43 41 40 40 41 42 46 52 56 59 60 60 62 66 75 91 115
206 209 210 210 212 214 215 217 219 220 220 220 220 219 224 231 237 242 247 250 249 245 246 247 250 256 260 259 257 258 262 267 274 285 297 304 311 318 315 310 311 309 304 308 313 311 315 328 333 327 322 316 308 301 298 300 298 287 287 307 333 345 348 355 6 18 29 38 41 40 38 36 36 36 37 41 45 51 56 59 63 65 69 75 90
210 213 212 210 211 214 217 223 227 227 226 225 226 227 228 233 237 242 249 251 250 247 246 247 250 255 258 258 256 256 258 263 275 288 298 303 306 311 312 315 320 319 315 312 310 310 312 319 327 326 320 309 295 289 290 293 295 291 282 279 292 316 329 335 343 352 358 8 20 29 32 30 28 28 28 30 34 37 40 44 47 52 57 61 63
215 215 214 212 212 213 217 223 229 233 232 230 231 233 233 234 239 244 250 256 259 260 256 253 254 255 257 258 256 257 262 267 273 279 286 290 291 294 298 309 317 324 323 311 303 307 310 311 313 313 313 310 295 288 289 291 295 295 288 284 291 300 306 311 317 325 332 338 345 353 6 14 16 17 17 17 20 24 27 30 30 30 32 38 43
216 216 216 217 218 217 217 220 226 233 236 236 237 238 238 238 242 245 250 254 258 262 263 264 265 266 265 264 260 259 263 267 270 274 278 277 276 276 282 293 300 304 315 306 291 293 302 304 305 304 306 304 297 295 296 294 294 294 291 292 292 293 295 295 296 302 309 315 321 326 332 341 349 353 357 0 3 7 13 15 16 15 11 9 4
217 217 217 218 221 224 223 221 222 229 233 234 235 237 238 239 240 244 249 251 254 260 267 271 274 275 274 270 265 261 261 262 265 270 275 275 272 271 275 283 285 282 290 292 281 280 285 289 291 295 298 296 293 294 295 293 291 291 293 294 292 291 292 290 287 290 297 303 304 306 311 319 326 330 332 336 337 341 347 353 358 360 358 355 347
216 218 219 219 221 225 230 230 229 231 232 232 234 235 236 237 237 240 246 250 253 257 263 268 271 272 272 272 270 268 267 265 267 273 280 282 282 280 280 281 278 276 280 282 277 272 272 275 279 286 292 292 289 287 287 287 286 286 289 292 292 292 291 289 289 288 288 293 300 301 299 303 310 315 319 323 324 320 317 317 322 329 335 339 338
214 217 220 221 220 222 228 235 236 237 236 235 235 237 237 239 240 243 250 255 258 259 262 267 271 272 272 270 269 270 271 272 277 285 293 294 293 291 288 286 284 284 287 291 290 283 275 272 275 284 289 289 287 284 281 280 282 283 283 284 287 287 286 288 292 292 288 285 291 295 294 295 299 302 306 313 318 317 311 303 299 300 302 303 307
218 220 221 222 221 220 222 228 233 236 238 238 238 240 242 244 246 250 257 264 268 270 269 268 268 269 272 272 271 272 276 282 287 293 298 298 296 293 289 287 287 288 289 293 295 289 281 274 269 270 275 278 279 279 278 278 279 281 280 280 280 280 281 282 285 288 286 282 283 287 290 292 294 296 299 303 307 308 305 301 295 293 293 291 289
223 224 225 225 225 224 224 226 230 234 238 241 244 247 249 250 251 253 257 260 262 265 267 267 266 266 269 274 279 281 281 283 288 290 292 293 291 290 289 286 285 285 285 286 287 284 280 277 273 269 268 271 271 271 274 276 277 276 276 278 278 277 278 279 279 280 280 278 278 280 284 288 293 295 296 296 298 299 298 295 291 288 289 291 290
224 224 226 227 227 228 227 228 232 233 235 241 249 253 252 250 249 250 250 251 253 255 258 262 267 269 270 272 277 279 276 275 277 280 283 284 285 287 288 286 286 286 283 281 281 279 276 275 274 273 273 273 271 269 269 272 275 276 274 273 273 273 274 276 277 277 276 276 275 275 277 282 287 290 292 292 292 291 291 290 287 285 284 286 288
222 223 226 228 227 228 229 233 236 234 231 235 243 247 246 245 244 246 247 250 254 255 256 258 262 266 267 267 269 270 271 271 271 274 276 278 280 283 284 284 284 284 282 279 277 274 272 273 273 274 274 273 271 267 264 264 268 272 272 271 271 271 273 274 274 273 273 275 275 275 275 278 281 282 283 284 284 284 284 285 286 285 282 282 283
223 225 228 231 232 232 236 241 244 241 237 236 238 240 243 246 248 249 251 254 258 261 261 262 263 262 260 261 263 266 269 271 271 272 274 275 277 278 278 278 278 278 279 280 278 273 270 272 274 274 274 274 272 268 264 263 265 267 268 268 268 270 270 271 271 270 271 274 276 275 274 275 278 278 278 276 275 274 276 278 281 283 283 282 281
226 228 231 234 236 238 241 244 243 242 243 244 243 244 247 251 253 253 254 258 260 262 262 262 262 261 258 257 260 264 269 270 270 271 272 273 275 276 275 274 273 272 274 277 277 273 270 271 273 273 274 274 272 269 268 270 271 270 267 267 268 270 271 271 271 271 271 272 273 273 273 274 275 275 275 274 273 272 272 273 276 278 281 282 282
229 232 235 238 239 240 242 242 238 236 242 247 247 246 246 249 253 255 256 260 262 262 262 259 257 255 254 257 261 264 267 267 268 268 269 270 273 275 274 272 271 272 273 275 274 272 270 271 272 271 271 272 273 272 272 274 273 271 269 268 269 271 273 274 274 274 273 273 271 270 270 271 271 271 271 271 273 274 274 275 275 277 279 282 282
234 237 238 239 240 239 239 240 237 235 241 249 252 252 251 252 255 256 257 261 263 264 261 256 252 250 250 254 257 259 261 262 264 265 267 269 273 274 272 270 271 272 273 272 270 268 268 268 269 270 270 272 275 276 275 275 274 273 273 274 274 274 276 279 281 281 280 277 273 270 267 267 267 268 269 270 271 271 273 276 277 276 278 280 282
234 238 239 239 239 237 235 237 240 240 242 249 255 259 259 259 259 257 257 259 263 265 262 256 252 250 248 251 253 255 256 258 259 261 263 266 269 271 270 269 269 270 270 270 268 266 268 270 273 275 275 275 275 274 274 274 275 275 276 278 280 281 281 283 285 286 286 283 278 272 266 264 263 264 266 269 270 270 272 274 275 275 275 277 278
230 233 236 237 237 235 234 237 242 245 246 249 254 259 262 263 262 259 257 260 265 267 265 260 254 250 249 250 249 248 248 249 254 258 261 263 264 265 266 267 267 266 265 266 267 267 269 272 276 278 278 276 273 272 273 273 273 275 276 277 279 280 281 282 282 284 285 284 280 275 270 266 265 264 265 267 269 270 271 273 274 274 274 273 274
228 230 232 234 236 238 239 241 244 246 248 251 254 260 263 263 262 258 258 262 266 267 267 266 264 258 254 251 249 249 251 251 251 254 258 261 262 263 264 264 265 263 261 263 266 267 267 269 273 276 278 276 272 271 272 273 274 275 276 277 279 279 280 281 281 281 281 280 279 277 274 271 269 267 266 266 269 269 270 271 272 272 272 273 273
227 232 237 239 241 244 244 245 247 247 248 252 257 261 262 262 261 261 260 262 264 266 267 268 266 261 257 258 260 264 268 268 262 257 257 260 263 265 265 266 265 264 263 264 263 261 260 264 269 274 276 276 275 274 274 275 274 274 275 277 279 280 280 281 282 283 283 282 281 279 276 273 271 269 267 266 267 267 268 269 270 270 270 270 270
230 235 241 245 247 250 250 250 251 250 251 254 257 260 261 262 263 263 263 263 263 264 265 265 264 263 263 265 267 268 271 273 270 265 261 259 260 263 266 270 271 271 270 269 267 263 260 260 266 272 275 276 276 275 273 273 273 273 274 275 276 278 280 281 282 283 282 282 282 282 280 279 276 274 272 270 267 266 265 266 267 268 268 268 268
232 234 239 246 250 253 255 257 257 257 258 258 259 261 262 263 264 264 264 264 263 262 262 263 264 265 264 263 263 264 267 269 267 265 263 262 261 262 266 272 274 273 271 271 273 272 269 266 267 269 271 272 272 271 269 269 271 272 274 274 275 277 278 280 281 282 281 280 280 279 279 279 278 276 275 272 269 268 267 266 265 266 267 268 267
237 238 242 250 253 256 259 260 260 261 261 262 262 262 262 262 262 263 263 263 264 263 262 262 263 262 262 261 262 263 264 263 263 264 264 264 265 266 269 271 272 271 271 273 274 274 273 273 271 270 271 271 270 267 266 267 269 271 273 274 276 277 277 277 279 280 280 280 279 278 277 277 277 276 275 273 268 266 266 267 268 268 268 268 267
249 250 253 256 256 259 261 261 260 260 261 262 264 265 267 267 266 264 263 263 263 263 262 262 261 259 259 259 258 259 260 263 264 264 263 265 268 270 271 270 270 271 273 276 277 275 275 274 273 273 274 274 273 270 268 268 270 272 273 274 275 276 276 277 278 278 279 278 278 279 279 279 277 276 275 273 270 267 265 265 267 269 270 269 268
257 258 259 260 260 261 263 263 262 262 263 265 268 270 271 270 268 266 263 261 260 259 259 261 262 262 260 259 257 256 257 261 263 262 262 264 267 269 271 272 272 274 276 277 277 276 275 274 274 273 273 274 274 273 272 272 274 275 276 276 276 277 277 278 277 276 276 277 278 279 279 279 278 276 275 274 273 270 268 267 266 266 267 267 266
259 258 259 261 262 263 263 263 264 266 268 269 271 271 271 270 268 266 264 263 263 262 260 260 261 262 263 263 262 259 258 260 262 262 262 263 265 267 270 272 273 274 275 275 275 275 276 276 276 275 274 275 275 276 276 276 277 278 279 279 278 277 277 277 277 276 276 277 278 278 279 280 279 277 277 277 276 274 271 270 269 268 267 266 264
Height
3209 3210 3211 3212 3213 3214 3215 3215 3216 3216 3217 3217 3218 3218 3218 3219 3219 3219 3219 3219 3219 3219 3219 3219 3219 3218 3218 3218 3218 3218 3217 3217 3216 3215 3214 3213 3212 3211 3210 3209 3208 3207 3205 3204 3203 3201 3200 3200 3199 3198 3196 3195 3193 3191 3190 3188 3187 3185 3184 3182 3181 3179 3178 3177 3176 3174 3173 3172 3171 3171 3172 3173 3171 3170 3170 3170 3170 3171 3171 3171 3175 3178 3180 3183 3184
3209 3210 3211 3212 3213 3214 3215 3215 3216 3216 3217 3218 3218 3218 3218 3219 3219 3219 3220 3220 3220 3219 3219 3219 3219 3219 3219 3219 3219 3218 3218 3217 3216 3215 3214 3213 3213 3212 3211 3210 3209 3208 3206 3205 3203 3202 3201 3200 3199 3198 3196 3195 3193 3192 3190 3189 3187 3186 3184 3183 3181 3179 3178 3177 3175 3174 3173 3172 3171 3170 3170 3171 3170 3168 3167 3168 3168 3168 3168 3170 3174 3177 3179 3180 3182
3209 3211 3212 3213 3214 3215 3215 3216 3216 3217 3217 3218 3218 3218 3219 3219 3219 3219 3220 3220 3220 3219 3219 3220 3220 3220 3220 3219 3219 3219 3218 3217 3216 3215 3214 3213 3213 3212 3211 3210 3209 3208 3207 3205 3204 3203 3201 3200 3199 3198 3197 3196 3194 3192 3191 3189 3188 3186 3184 3183 3182 3180 3178 3176 3175 3174 3173 3172 3170 3169 3168 3169 3169 3168 3166 3165 3166 3165 3165 3168 3172 3175 3176 3178 3180
3209 3211 3212 3213 3214 3215 3215 3216 3216 3217 3218 3218 3218 3219 3219 3219 3219 3219 3219 3220 3220 3220 3220 3220 3220 3221 3220 3220 3219 3219 3218 3218 3217 3215 3215 3214 3213 3212 3211 3211 3210 3209 3208 3206 3205 3203 3202 3201 3199 3198 3197 3196 3194 3193 3191 3190 3188 3186 3185 3183 3182 3180 3177 3175 3174 3173 3173 3171 3169 3168 3167 3168 3168 3168 3166 3164 3163 3163 3164 3169 3172 3174 3175 3176 3178
3209 3210 3212 3213 3214 3215 3215 3216 3216 3217 3218 3219 3219 3219 3219 3219 3219 3219 3220 3220 3220 3220 3220 3221 3221 3221 3221 3221 3220 3219 3219 3218 3217 3216 3215 3214 3213 3213 3212 3211 3210 3209 3208 3207 3205 3204 3203 3201 3200 3198 3197 3196 3195 3193 3191 3190 3188 3187 3185 3183 3182 3180 3177 3175 3174 3173 3172 3170 3169 3167 3167 3167 3167 3167 3166 3163 3161 3162 3166 3170 3171 3173 3174 3175 3177
3209 3210 3212 3213 3214 3215 3215 3216 3217 3218 3218 3219 3219 3219 3219 3219 3220 3220 3220 3220 3221 3221 3221 3221 3221 3222 3221 3221 3220 3220 3219 3218 3217 3216 3216 3215 3214 3213 3212 3211 3211 3210 3209 3207 3206 3205 3203 3202 3201 3199 3198 3197 3195 3194 3192 3190 3189 3187 3185 3183 3182 3179 3177 3175 3173 3172 3171 3169 3168 3167 3166 3166 3166 3165 3165 3163 3160 3162 3165 3167 3169 3171 3172 3174 3175
3209 3210 3211 3213 3214 3215 3215 3216 3217 3218 3219 3219 3219 3219 3219 3220 3220 3220 3220 3220 3221 3221 3221 3221 3222 3222 3221 3221 3220 3220 3219 3218 3218 3217 3216 3216 3215 3214 3213 3212 3211 3210 3209 3208 3207 3205 3204 3203 3201 3199 3198 3197 3196 3194 3192 3191 3189 3188 3186 3184 3182 3179 3177 3175 3173 3172 3170 3169 3168 3167 3165 3164 3163 3163 3163 3161 3160 3162 3164 3165 3167 3168 3170 3172 3174
3208 3210 3211 3213 3214 3215 3216 3217 3218 3218 3219 3219 3219 3219 3219 3220 3220 3220 3220 3220 3221 3221 3221 3221 3221 3221 3221 3221 3220 3220 3219 3218 3218 3217 3217 3216 3215 3214 3214 3213 3212 3211 3210 3208 3207 3206 3205 3203 3202 3200 3199 3197 3196 3195 3193 3191 3190 3188 3187 3184 3182 3179 3177 3175 3173 3172 3170 3169 3167 3166 3164 3163 3161 3161 3160 3160 3160 3161 3162 3163 3165 3166 3168 3171 3173
3209 3210 3211 3212 3214 3215 3216 3217 3218 3219 3219 3219 3219 3219 3220 3220 3220 3220 3220 3220 3221 3221 3221 3221 3221 3221 3221 3221 3220 3220 3219 3218 3217 3217 3217 3216 3215 3214 3214 3213 3213 3212 3210 3209 3208 3206 3205 3204 3203 3201 3199 3198 3197 3195 3194 3192 3190 3188 3187 3185 3183 3180 3177 3175 3173 3172 3170 3168 3167 3165 3164 3162 3160 3159 3159 3159 3159 3159 3159 3160 3162 3164 3166 3169 3172
3209 3210 3211 3212 3214 3215 3216 3217 3218 3218 3219 3219 3220 3220 3220 3221 3221 3221 3220 3220 3221 3221 3221 3221 3221 3221 3221 3220 3220 3219 3219 3218 3217 3217 3217 3216 3215 3214 3213 3213 3213 3212 3211 3209 3208 3207 3206 3205 3203 3201 3200 3198 3197 3196 3194 3193 3191 3189 3188 3186 3184 3181 3178 3176 3174 3172 3171 3168 3167 3165 3164 3162 3160 3159 3159 3158 3158 3158 3158 3160 3161 3163 3166 3169 3172
3209 3210 3211 3213 3214 3215 3216 3217 3218 3218 3219 3219 3220 3220 3220 3221 3221 3221 3221 3221 3221 3221 3221 3221 3221 3221 3221 3220 3220 3219 3219 3218 3217 3217 3217 3216 3215 3214 3214 3213 3212 3211 3211 3210 3209 3208 3206 3205 3204 3202 3200 3199 3198 3196 3195 3193 3192 3190 3188 3187 3185 3182 3179 3177 3174 3173 3171 3169 3167 3166 3165 3163 3161 3160 3159 3159 3158 3159 3159 3161 3162 3164 3167 3171 3174
3208 3210 3211 3213 3214 3215 3216 3217 3217 3218 3218 3219 3219 3220 3220 3221 3221 3221 3221 3221 3221 3221 3221 3221 3221 3221 3221 3221 3220 3220 3219 3219 3218 3217 3217 3216 3215 3214 3214 3213 3212 3211 3211 3210 3210 3208 3206 3205 3204 3203 3201 3200 3198 3197 3195 3194 3193 3191 3189 3188 3185 3183 3180 3178 3176 3174 3172 3170 3168 3167 3166 3164 3162 3161 3160 3159 3159 3160 3161 3162 3164 3166 3170 3173 3175
3209 3210 3212 3213 3214 3215 3215 3216 3217 3218 3218 3219 3219 3219 3220 3220 3221 3221 3221 3221 3221 3221 3221 3221 3221 3221 3221 3221 3221 3220 3220 3219 3218 3218 3217 3216 3215 3214 3214 3213 3212 3211 3211 3210 3210 3209 3207 3205 3204 3203 3202 3200 3199 3197 3196 3195 3193 3192 3190 3188 3186 3184 3181 3179 3177 3175 3173 3172 3170 3168 3167 3166 3164 3163 3162 3161 3161 3161 3163 3165 3166 3169 3172 3175 3176
3209 3210 3212 3213 3213 3214 3215 3216 3217 3217 3218 3218 3219 3219 3220 3220 3220 3221 3221 3221 3221 3222 3222 3222 3222 3221 3221 3221 3221 3220 3220 3219 3218 3218 3217 3216 3215 3214 3213 3213 3212 3211 3211 3210 3210 3209 3207 3205 3204 3203 3202 3201 3199 3198 3197 3195 3194 3193 3191 3190 3187 3185 3183 3180 3178 3176 3175 3173 3171 3170 3169 3168 3167 3165 3165 3164 3163 3163 3165 3167 3169 3171 3174 3176 3178
3209 3210 3211 3212 3213 3214 3215 3216 3216 3217 3217 3218 3218 3219 3219 3220 3220 3221 3221 3221 3222 3222 3222 3222 3222 3221 3221 3221 3220 3220 3220 3219 3218 3218 3217 3216 3215 3214 3213 3213 3212 3211 3211 3210 3209 3208 3207 3206 3204 3203 3202 3201 3200 3198 3197 3196 3195 3194 3193 3191 3189 3186 3184 3182 3180 3178 3176 3174 3173 3171 3171 3170 3169 3168 3167 3167 3166 3167 3168 3170 3171 3173 3176 3177 3179
3209 3210 3211 3212 3213 3214 3215 3215 3216 3217 3217 3218 3218 3219 3219 3220 3220 3220 3221 3221 3221 3221 3221 3221 3221 3221 3221 3220 3220 3220 3219 3219 3218 3217 3217 3216 3215 3214 3213 3212 3212 3211 3210 3210 3209 3208 3207 3206 3204 3203 3202 3201 3200 3199 3198 3197 3196 3195 3194 3192 3190 3187 3185 3183 3182 3180 3178 3177 3175 3173 3172 3172 3171 3171 3170 3170 3170 3170 3171 3173 3174 3176 3177 3179 3180
3209 3209 3210 3212 3213 3214 3214 3215 3215 3216 3217 3217 3218 3219 3219 3219 3219 3220 3220 3220 3220 3221 3221 3221 3221 3220 3220 3220 3220 3219 3219 3218 3218 3217 3216 3216 3215 3214 3213 3212 3211 3211 3210 3209 3209 3208 3207 3206 3204 3203 3202 3202 3201 3200 3199 3198 3197 3196 3195 3193 3191 3189 3187 3185 3184 3182 3181 3179 3177 3176 3175 3174 3173 3173 3173 3173 3173 3174 3174 3175 3177 3178 3179 3180 3181
3208 3209 3210 3211 3212 3213 3214 3214 3215 3215 3216 3217 3217 3218 3218 3218 3219 3219 3219 3219 3220 3220 3220 3220 3220 3220 3219 3219 3219 3219 3219 3218 3218 3217 3216 3215 3215 3214 3213 3212 3211 3211 3210 3209 3208 3208 3207 3205 3204 3203 3203 3202 3201 3200 3200 3199 3198 3197 3196 3195 3193 3191 3189 3187 3185 3184 3183 3181 3180 3179 3177 3176 3176 3175 3175 3175 3176 3176 3177 3177 3178 3180 3181 3182 3183
3208 3209 3210 3211 3211 3212 3213 3213 3214 3214 3215 3216 3216 3217 3217 3217 3218 3218 3218 3219 3219 3219 3219 3219 3219 3219 3219 3219 3219 3219 3218 3218 3217 3217 3216 3215 3214 3214 3213 3212 3211 3210 3210 3209 3208 3207 3206 3205 3204 3204 3203 3202 3201 3201 3201 3200 3199 3198 3197 3196 3194 3193 3190 3189 3187 3186 3185 3184 3182 3181 3180 3179 3178 3178 3178 3178 3178 3178 3179 3180 3180 3181 3183 3184 3185
3208 3208 3209 3210 3211 3211 3212 3212 3213 3214 3214 3215 3215 3215 3216 3216 3217 3217 3217 3217 3218 3218 3218 3218 3218 3218 3219 3219 3218 3218 3218 3217 3217 3216 3216 3215 3214 3213 3213 3212 3211 3210 3210 3209 3208 3207 3206 3205 3205 3204 3203 3202 3202 3202 3201 3201 3200 3199 3198 3196 3196 3194 3192 3190 3189 3188 3187 3186 3185 3184 3183 3182 3181 3181 3180 3180 3180 3181 3181 3182 3182 3183 3184 3185 3186
3207 3208 3209 3210 3210 3211 3211 3212 3212 3213 3213 3214 3214 3215 3215 3215 3215 3216 3216 3216 3216 3216 3217 3217 3217 3218 3218 3218 3218 3217 3217 3217 3216 3216 3215 3215 3214 3213 3213 3212 3211 3210 3209 3209 3208 3207 3206 3205 3204 3204 3203 3202 3202 3202 3202 3201 3200 3199 3198 3197 3196 3196 3194 3192 3191 3190 3189 3188 3187 3186 3185 3185 3184 3183 3183 3183 3183 3183 3183 3184 3184 3185 3185 3186 3187
3207 3208 3209 3209 3210 3210 3211 3211 3212 3212 3212 3213 3213 3214 3214 3214 3214 3214 3215 3215 3215 3215 3216 3216 3216 3217 3217 3217 3217 3216 3216 3216 3216 3215 3215 3214 3214 3213 3213 3212 3211 3210 3209 3208 3208 3207 3206 3205 3204 3203 3202 3202 3202 3202 3202 3202 3201 3200 3199 3198 3197 3197 3195 3194 3193 3192 3191 3190 3189 3188 3187 3187 3186 3186 3186 3185 3185 3185 3185 3186 3186 3186 3187 3187 3188
3207 3208 3208 3209 3209 3210 3210 3211 3211 3212 3212 3212 3213 3213 3213 3213 3213 3214 3214 3214 3214 3214 3215 3215 3215 3215 3216 3216 3216 3216 3215 3215 3215 3214 3214 3213 3213 3213 3212 3211 3210 3210 3209 3208 3207 3207 3206 3205 3204 3203 3202 3202 3202 3202 3202 3202 3201 3200 3199 3198 3198 3198 3197 3195 3194 3194 3193 3192 3191 3190 3189 3189 3188 3188 3187 3187 3187 3187 3188 3188 3188 3188 3188 3189 3189
3206 3207 3208 3208 3209 3209 3210 3210 3211 3211 3211 3211 3212 3212 3212 3212 3213 3213 3213 3213 3213 3213 3213 3213 3214 3214 3214 3215 3215 3215 3214 3214 3214 3213 3213 3213 3212 3212 3211 3211 3210 3209 3209 3208 3207 3207 3206 3205 3204 3203 3202 3202 3202 3202 3202 3202 3201 3200 3200 3199 3198 3198 3198 3196 3195 3195 3194 3194 3193 3192 3191 3191 3190 3190 3189 3189 3189 3189 3189 3189 3190 3190 3190 3190 3190
3206 3207 3207 3208 3208 3209 3209 3210 3210 3210 3210 3211 3211 3211 3211 3211 3212 3212 3212 3212 3212 3212 3212 3213 3213 3213 3213 3213 3213 3213 3213 3213 3213 3212 3212 3212 3212 3211 3211 3210 3210 3209 3208 3208 3207 3206 3206 3205 3204 3203 3202 3202 3202 3202 3202 3202 3201 3201 3200 3199 3199 3199 3198 3197 3196 3196 3196 3195 3195 3194 3193 3193 3192 3192 3191 3191 3190 3190 3190 3190 3191 3191 3191 3192 3192
3205 3206 3206 3207 3208 3208 3209 3209 3209 3209 3210 3210 3210 3210 3211 3211 3211 3211 3211 3211 3211 3211 3211 3211 3212 3212 3212 3212 3212 3212 3212 3212 3212 3212 3211 3211 3211 3211 3210 3210 3209 3208 3208 3207 3207 3206 3205 3205 3203 3203 3203 3203 3202 3202 3202 3202 3201 3201 3200 3200 3200 3199 3199 3198 3197 3197 3196 3196 3196 3196 3195 3195 3194 3194 3193 3193 3192 3192 3192 3192 3192 3192 3192 3192 3193
3204 3205 3205 3206 3207 3208 3208 3208 3209 3209 3209 3209 3209 3210 3210 3210 3210 3210 3210 3210 3211 3210 3210 3211 3211 3211 3211 3211 3212 3212 3211 3211 3211 3211 3211 3211 3210 3210 3210 3210 3209 3208 3207 3207 3206 3206 3205 3204 3204 3203 3203 3203 3202 3202 3202 3201 3201 3201 3200 3200 3200 3199 3199 3199 3198 3198 3197 3197 3196 3196 3196 3196 3196 3195 3195 3194 3194 3193 3193 3193 3193 3193 3193 3193 3193
3203 3204 3205 3205 3206 3207 3207 3208 3208 3209 3209 3209 3209 3209 3209 3210 3210 3210 3210 3210 3210 3210 3210 3210 3210 3210 3210 3210 3211 3211 3210 3210 3210 3210 3210 3210 3210 3209 3209 3209 3209 3208 3208 3207 3206 3206 3205 3204 3204 3204 3203 3203 3202 3202 3201 3201 3201 3201 3200 3200 3200 3199 3199 3199 3199 3198 3198 3197 3197 3197 3196 3196 3196 3196 3196 3196 3195 3195 3194 3194 3194 3194 3194 3194 3194
3203 3203 3204 3205 3205 3206 3207 3207 3208 3208 3208 3209 3209 3209 3209 3209 3210 3210 3209 3209 3210 3210 3210 3210 3210 3210 3210 3210 3210 3210 3210 3209 3209 3209 3209 3209 3209 3209 3209 3208 3208 3208 3207 3207 3206 3206 3205 3205 3204 3204 3204 3203 3202 3202 3201 3201 3201 3200 3200 3200 3200 3200 3199 3199 3199 3199 3198 3198 3198 3197 3197 3197 3197 3197 3196 3196 3196 3195 3195 3195 3194 3194 3194 3194 3194
3202 3203 3204 3204 3205 3205 3206 3206 3207 3207 3208 3208 3208 3209 3209 3209 3209 3209 3209 3209 3209 3209 3209 3210 3209 3209 3210 3209 3209 3209 3209 3209 3208 3208 3208 3208 3208 3208 3208 3208 3207 3207 3206 3206 3205 3205 3205 3204 3204 3204 3204 3203 3202 3202 3201 3201 3200 3200 3200 3200 3200 3200 3199 3199 3199 3199 3198 3198 3198 3198 3198 3197 3197 3197 3197 3196 3196 3196 3196 3195 3195 3195 3195 3194 3194
3201 3202 3203 3203 3204 3205 3205 3205 3206 3206 3206 3207 3207 3207 3208 3208 3208 3208 3208 3209 3209 3209 3209 3209 3209 3209 3209 3209 3209 3209 3208 3208 3208 3208 3208 3208 3208 3207 3207 3207 3206 3205 3205 3205 3204 3204 3204 3204 3204 3203 3203 3202 3202 3201 3201 3201 3200 3200 3200 3200 3200 3199 3199 3199 3199 3199 3199 3198 3198 3198 3198 3198 3197 3197 3197 3197 3196 3196 3196 3196 3195 3195 3195 3195 3195
3200 3201 3201 3202 3203 3203 3204 3204 3205 3205 3206 3206 3206 3206 3206 3207 3207 3207 3207 3207 3208 3208 3208 3208 3208 3208 3208 3209 3208 3208 3208 3207 3207 3207 3207 3207 3207 3207 3206 3206 3205 3205 3204 3204 3204 3203 3203 3203 3203 3203 3202 3202 3201 3201 3200 3200 3200 3200 3200 3200 3199 3199 3199 3199 3199 3199 3199 3198 3198 3197 3197 3197 3197 3197 3197 3197 3196 3196 3196 3196 3195 3195 3195 3195 3195
3198 3199 3200 3201 3202 3202 3203 3203 3204 3204 3205 3205 3205 3205 3205 3206 3206 3206 3206 3206 3206 3206 3206 3207 3207 3207 3207 3207 3207 3206 3206 3207 3207 3207 3207 3207 3206 3206 3206 3206 3205 3204 3204 3204 3204 3203 3202 3202 3202 3202 3202 3201 3201 3200 3200 3199 3199 3199 3199 3199 3199 3199 3198 3198 3198 3199 3198 3198 3197 3197 3197 3197 3196 3196 3196 3196 3196 3196 3195 3195 3195 3195 3195 3195 3195
3196 3197 3198 3199 3200 3201 3202 3202 3203 3203 3204 3204 3204 3204 3205 3205 3205 3205 3205 3205 3205 3205 3205 3205 3205 3205 3205 3206 3205 3205 3205 3206 3206 3206 3206 3205 3205 3205 3205 3204 3204 3204 3203 3203 3203 3203 3202 3202 3201 3201 3200 3200 3200 3199 3199 3199 3198 3198 3198 3198 3198 3198 3198 3198 3198 3198 3198 3197 3196 3196 3196 3196 3196 3196 3196 3195 3195 3195 3195 3195 3195 3194 3194 3194 3194
3195 3196 3197 3198 3198 3199 3200 3201 3202 3202 3203 3203 3203 3204 3204 3204 3204 3204 3204 3204 3204 3204 3204 3204 3203 3203 3203 3204 3204 3204 3204 3204 3204 3204 3204 3204 3204 3204 3203 3203 3203 3202 3202 3202 3202 3202 3202 3201 3201 3200 3200 3199 3199 3198 3198 3197 3197 3197 3197 3197 3197 3197 3197 3197 3197 3197 3197 3196 3196 3195 3196 3196 3195 3195 3195 3195 3195 3194 3194 3194 3194 3194 3194 3193 3193
3193 3194 3195 3196 3197 3197 3198 3199 3200 3200 3201 3202 3202 3203 3203 3203 3203 3202 3202 3202 3202 3202 3202 3202 3201 3201 3202 3202 3202 3202 3202 3202 3202 3202 3202 3203 3203 3202 3202 3202 3202 3201 3201 3201 3200 3200 3200 3200 3200 3200 3199 3199 3198 3198 3197 3197 3196 3196 3196 3196 3196 3196 3196 3196 3196 3195 3195 3195 3194 3194 3195 3195 3195 3194 3194 3194 3194 3194 3193 3193 3193 3193 3193 3193 3192
3191 3192 3193 3193 3194 3196 3197 3197 3198 3198 3199 3200 3200 3201 3201 3201 3200 3200 3200 3200 3200 3199 3199 3199 3199 3199 3200 3200 3199 3199 3199 3200 3200 3200 3200 3200 3200 3200 3200 3199 3199 3199 3199 3199 3199 3198 3198 3198 3198 3198 3198 3198 3198 3197 3197 3196 3196 3195 3195 3195 3194 3194 3194 3194 3194 3194 3193 3193 3193 3193 3194 3194 3194 3193 3193 3193 3193 3192 3192 3192 3192 3192 3192 3191 3191
3189 3190 3190 3191 3193 3194 3196 3196 3197 3198 3198 3198 3198 3199 3199 3199 3199 3198 3198 3198 3198 3198 3197 3197 3197 3197 3197 3197 3197 3197 3197 3198 3198 3197 3197 3197 3197 3197 3197 3196 3196 3196 3196 3196 3196 3196 3196 3196 3196 3196 3195 3195 3195 3195 3195 3195 3195 3194 3194 3193 3193 3193 3192 3192 3192 3192 3192 3192 3192 3192 3192 3192 3192 3192 3192 3192 3191 3191 3191 3191 3191 3191 3190 3190 3190
3187 3187 3188 3190 3191 3192 3193 3194 3195 3195 3196 3197 3197 3198 3198 3198 3197 3197 3196 3196 3196 3196 3195 3195 3195 3195 3195 3195 3195 3195 3195 3195 3195 3195 3195 3195 3195 3195 3194 3194 3193 3193 3193 3193 3193 3193 3194 3194 3194 3194 3193 3193 3193 3193 3192 3192 3192 3192 3192 3191 3191 3191 3191 3190 3190 3190 3190 3190 3190 3190 3190 3190 3190 3190 3190 3190 3190 3189 3189 3189 3189 3189 3189 3189 3188
3185 3186 3187 3188 3189 3190 3191 3192 3193 3193 3194 3195 3196 3196 3196 3195 3195 3195 3194 3194 3193 3193 3193 3193 3193 3193 3193 3193 3193 3193 3193 3193 3193 3193 3192 3192 3192 3192 3192 3192 3191 3191 3191 3191 3191 3191 3191 3191 3192 3192 3192 3192 3191 3191 3190 3190 3190 3190 3189 3189 3189 3189 3188 3188 3188 3188 3188 3188 3188 3188 3188 3188 3188 3188 3188 3188 3188 3188 3187 3187 3187 3187 3187 3186 3186
3183 3184 3185 3186 3187 3188 3189 3190 3190 3191 3191 3192 3193 3193 3193 3193 3193 3192 3192 3191 3191 3191 3190 3190 3190 3190 3190 3190 3190 3190 3190 3190 3190 3189 3189 3189 3189 3189 3189 3189 3189 3189 3189 3189 3189 3189 3189 3189 3190 3189 3189 3189 3189 3189 3188 3188 3188 3187 3187 3187 3187 3187 3186 3186 3186 3186 3186 3186 3186 3186 3186 3186 3186 3185 3185 3186 3186 3186 3185 3185 3184 3184 3184 3184 3184
3180 3182 3183 3184 3185 3186 3187 3187 3188 3188 3189 3189 3190 3190 3191 3191 3190 3190 3190 3189 3189 3189 3188 3188 3188 3188 3188 3188 3188 3187 3187 3187 3186 3186 3186 3186 3186 3186 3186 3186 3186 3186 3186 3186 3186 3186 3186 3187 3187 3187 3186 3187 3187 3186 3186 3186 3185 3185 3185 3185 3185 3185 3184 3184 3184 3184 3183 3183 3183 3183 3183 3183 3183 3183 3183 3183 3183 3183 3183 3183 3182 3182 3181 3181 3181
3177 3179 3180 3182 3183 3184 3184 3185 3185 3186 3186 3187 3188 3188 3188 3188 3187 3187 3188 3187 3187 3187 3187 3187 3186 3186 3186 3186 3185 3184 3183 3183 3183 3183 3183 3183 3183 3183 3184 3184 3184 3183 3183 3183 3183 3183 3183 3184 3184 3184 3184 3185 3184 3184 3183 3183 3183 3183 3183 3183 3183 3182 3182 3181 3181 3181 3181 3180 3180 3180 3180 3180 3180 3180 3181 3181 3181 3181 3180 3180 3180 3179 3179 3179 3178
3175 3176 3178 3180 3181 3181 3182 3182 3183 3183 3184 3185 3185 3185 3185 3185 3185 3185 3185 3185 3185 3185 3185 3185 3185 3184 3184 3183 3182 3181 3181 3182 3181 3181 3181 3181 3180 3181 3181 3181 3180 3180 3179 3180 3180 3180 3181 3181 3182 3182 3182 3182 3182 3182 3181 3181 3181 3181 3181 3180 3180 3180 3179 3179 3179 3179 3178 3177 3176 3177 3177 3177 3177 3177 3178 3178 3178 3178 3178 3177 3177 3177 3177 3176 3176
3172 3174 3176 3177 3179 3179 3179 3179 3180 3181 3181 3182 3182 3182 3182 3182 3182 3182 3182 3182 3182 3182 3182 3182 3181 3181 3181 3181 3182 3182 3183 3183 3182 3180 3179 3179 3178 3178 3178 3178 3178 3178 3177 3177 3178 3178 3179 3179 3180 3180 3180 3179 3179 3180 3179 3179 3179 3179 3178 3178 3178 3177 3176 3176 3176 3176 3176 3174 3174 3173 3174 3174 3174 3173 3174 3175 3174 3174 3174 3174 3174 3174 3174 3174 3173
3169 3171 3173 3174 3176 3177 3177 3177 3177 3178 3178 3178 3178 3179 3179 3179 3179 3179 3179 3179 3178 3179 3179 3178 3177 3177 3179 3180 3181 3181 3181 3181 3181 3179 3177 3176 3176 3175 3176 3177 3177 3177 3176 3176 3176 3177 3177 3177 3177 3177 3177 3177 3177 3177 3177 3176 3176 3176 3176 3176 3175 3174 3174 3174 3173 3173 3173 3171 3170 3170 3170 3171 3171 3170 3171 3172 3171 3170 3170 3170 3170 3170 3170 3170 3170
3168 3169 3171 3172 3173 3174 3174 3174 3174 3174 3174 3174 3175 3175 3175 3175 3176 3176 3176 3176 3175 3176 3175 3174 3174 3176 3177 3178 3178 3178 3178 3178 3177 3177 3175 3174 3174 3173 3174 3175 3175 3175 3175 3174 3174 3174 3175 3174 3174 3175 3174 3174 3174 3174 3174 3174 3173 3173 3173 3173 3173 3172 3172 3171 3171 3171 3170 3169 3168 3166 3166 3168 3168 3167 3167 3168 3167 3167 3167 3166 3166 3166 3166 3166 3166
3167 3168 3168 3169 3169 3169 3169 3170 3170 3170 3170 3170 3171 3171 3171 3172 3172 3172 3173 3173 3173 3173 3171 3171 3172 3174 3174 3174 3175 3175 3175 3175 3174 3174 3173 3172 3171 3171 3172 3173 3172 3172 3172 3171 3171 3171 3172 3172 3172 3172 3172 3171 3171 3171 3172 3171 3171 3170 3170 3170 3170 3169 3168 3168 3168 3168 3167 3166 3165 3163 3163 3164 3164 3163 3163 3163 3163 3162 3163 3163 3163 3162 3162 3162 3162
3164 3164 3164 3163 3163 3164 3165 3165 3166 3166 3166 3167 3167 3168 3168 3168 3168 3169 3169 3169 3169 3169 3168 3168 3169 3170 3170 3171 3171 3171 3172 3172 3171 3171 3170 3170 3169 3169 3170 3170 3170 3169 3168 3169 3169 3168 3169 3169 3169 3169 3169 3168 3168 3168 3169 3169 3168 3167 3167 3167 3167 3166 3164 3164 3165 3165 3164 3162 3161 3161 3159 3160 3161 3160 3159 3158 3158 3158 3158 3159 3159 3158 3158 3158 3157
3159 3160 3159 3158 3159 3161 3161 3161 3162 3162 3163 3164 3164 3165 3165 3165 3165 3164 3164 3164 3164 3164 3164 3164 3165 3166 3167 3168 3168 3168 3168 3168 3168 3168 3168 3167 3167 3167 3166 3167 3167 3166 3166 3166 3166 3165 3166 3166 3166 3167 3166 3165 3165 3165 3166 3166 3165 3164 3164 3164 3164 3162 3161 3161 3161 3161 3161 3159 3158 3157 3155 3155 3157 3156 3154 3154 3154 3154 3154 3154 3154 3153 3153 3153 3152
3155 3156 3155 3155 3156 3157 3157 3157 3158 3159 3160 3160 3161 3161 3161 3161 3161 3160 3159 3160 3160 3161 3161 3161 3163 3164 3165 3165 3166 3166 3165 3165 3165 3165 3165 3165 3164 3164 3164 3164 3164 3164 3163 3163 3163 3163 3163 3163 3163 3164 3164 3163 3162 3162 3162 3163 3162 3161 3160 3160 3160 3159 3158 3157 3156 3156 3156 3156 3155 3154 3152 3151 3151 3151 3150 3149 3148 3148 3150 3150 3149 3148 3147 3147 3147